Simultaneous Nadir Overpasses (SNOs) Predictions

Prediction of SNOs between LANDSAT-8 and NOAA-19 Satellite Orbit:

Table of predicted SNOs for the next 14.0 days since TLE Epoch: 1/16/2021
Index Date (LANDSAT-8) Time (LANDSAT-8) Lat,Lon (LANDSAT-8) SZA (LANDSAT-8 ) Date (NOAA-19) Time (NOAA-19) Lat,Lon (NOAA-19) SZA (NOAA-19 ) Distance(km) Time Diff (sec)
1 01/17/2021 01:58:23 -80.19, -0.44 78.16 01/17/2021 01:57:44 -80.18, -0.56 78.19 2.75 39
2 01/17/2021 02:47:50 80.16, 166.93 101.80 01/17/2021 02:48:49 80.16, 166.85 101.81 1.61 59
3 01/19/2021 07:32:06 80.17, 95.94 101.35 01/19/2021 07:31:03 80.19, 95.99 101.35 2.57 63
4 01/19/2021 08:21:33 -80.17, -96.43 78.67 01/19/2021 08:21:57 -80.17, -96.50 78.66 1.50 24
5 01/21/2021 13:55:15 80.18, 0.22 100.85 01/21/2021 13:55:16 80.18, 0.08 100.85 2.82 1
6 01/23/2021 19:28:58 -80.18, 96.86 79.67 01/23/2021 19:28:23 -80.18, 96.98 79.67 2.46 35
7 01/23/2021 20:18:24 80.18, -95.52 100.32 01/23/2021 20:19:28 80.16, -95.53 100.33 2.21 64
8 01/26/2021 01:02:40 80.18,-166.56 99.78 01/26/2021 01:01:42 80.19,-166.46 99.78 2.16 58
9 01/26/2021 01:52:07 -80.19, 1.11 80.23 01/26/2021 01:52:36 -80.18, 1.04 80.23 1.85 29



Historial Predications of SNOs between LANDSAT-8 and NOAA-19
